TimeCST,TemperatureF,Dew PointF,Humidity,Sea Level PressureIn,VisibilityMPH,Wind Direction,Wind SpeedMPH,Gust SpeedMPH,PrecipitationIn,Events,Conditions,WindDirDegrees,DateUTC
12:15 AM,23.0,21.2,93,29.66,10.0,Calm,Calm,-,N/A,,Overcast,0,2012-12-18 06:15:00
12:35 AM,23.0,21.2,93,29.66,10.0,SSW,3.5,-,N/A,,Overcast,200,2012-12-18 06:35:00
12:55 AM,23.0,19.4,86,29.66,10.0,Calm,Calm,-,N/A,,Overcast,0,2012-12-18 06:55:00
1:15 AM,23.0,19.4,86,29.67,10.0,Calm,Calm,-,N/A,,Overcast,0,2012-12-18 07:15:00
1:35 AM,23.0,19.4,86,29.67,10.0,Calm,Calm,-,N/A,,Overcast,0,2012-12-18 07:35:00
1:55 AM,23.0,19.4,86,29.67,10.0,Calm,Calm,-,N/A,,Overcast,0,2012-12-18 07:55:00
2:15 AM,23.0,19.4,86,29.67,10.0,Calm,Calm,-,N/A,,Overcast,0,2012-12-18 08:15:00
2:35 AM,23.0,19.4,86,29.67,10.0,Calm,Calm,-,N/A,,Overcast,0,2012-12-18 08:35:00
2:55 AM,23.0,19.4,86,29.66,10.0,Calm,Calm,-,N/A,,Overcast,0,2012-12-18 08:55:00
3:15 AM,23.0,19.4,86,29.66,10.0,Calm,Calm,-,N/A,,Overcast,0,2012-12-18 09:15:00
3:35 AM,23.0,19.4,86,29.66,10.0,Calm,Calm,-,N/A,,Overcast,0,2012-12-18 09:35:00
3:55 AM,23.0,19.4,86,29.66,10.0,SSE,4.6,-,N/A,,Overcast,160,2012-12-18 09:55:00
4:15 AM,23.0,19.4,86,29.66,10.0,Calm,Calm,-,N/A,,Overcast,0,2012-12-18 10:15:00
4:35 AM,23.0,19.4,86,29.66,10.0,ESE,3.5,-,N/A,,Overcast,120,2012-12-18 10:35:00
4:55 AM,23.0,19.4,86,29.65,10.0,SE,4.6,-,N/A,,Overcast,130,2012-12-18 10:55:00
5:15 AM,23.0,19.4,86,29.66,10.0,SE,3.5,-,N/A,,Overcast,130,2012-12-18 11:15:00
5:35 AM,23.0,19.4,86,29.66,10.0,Calm,Calm,-,N/A,,Overcast,0,2012-12-18 11:35:00
5:55 AM,23.0,19.4,86,29.66,10.0,Calm,Calm,-,N/A,,Overcast,0,2012-12-18 11:55:00
6:15 AM,23.0,19.4,86,29.66,10.0,SE,3.5,-,N/A,,Overcast,130,2012-12-18 12:15:00
6:35 AM,23.0,19.4,86,29.66,10.0,SE,3.5,-,N/A,,Overcast,130,2012-12-18 12:35:00
6:55 AM,23.0,19.4,86,29.66,10.0,Calm,Calm,-,N/A,,Overcast,0,2012-12-18 12:55:00
7:15 AM,23.0,19.4,86,29.67,10.0,Calm,Calm,-,N/A,,Overcast,0,2012-12-18 13:15:00
7:35 AM,23.0,19.4,86,29.67,10.0,Calm,Calm,-,N/A,,Overcast,0,2012-12-18 13:35:00
7:55 AM,23.0,19.4,86,29.67,10.0,Calm,Calm,-,N/A,,Overcast,0,2012-12-18 13:55:00
8:15 AM,23.0,19.4,86,29.67,10.0,Calm,Calm,-,N/A,,Overcast,0,2012-12-18 14:15:00
8:35 AM,23.0,19.4,86,29.66,10.0,ESE,4.6,-,N/A,,Overcast,120,2012-12-18 14:35:00
8:55 AM,23.0,19.4,86,29.67,10.0,ESE,4.6,-,N/A,,Overcast,120,2012-12-18 14:55:00
9:15 AM,24.8,21.2,86,29.67,10.0,ESE,5.8,-,N/A,,Overcast,110,2012-12-18 15:15:00
9:35 AM,24.8,21.2,86,29.67,10.0,East,3.5,-,N/A,,Overcast,100,2012-12-18 15:35:00
9:55 AM,24.8,21.2,86,29.67,10.0,Calm,Calm,-,N/A,,Overcast,0,2012-12-18 15:55:00
10:15 AM,24.8,21.2,86,29.68,10.0,Calm,Calm,-,N/A,,Overcast,0,2012-12-18 16:15:00
10:35 AM,24.8,21.2,86,29.67,10.0,SSE,4.6,-,N/A,,Overcast,160,2012-12-18 16:35:00
10:55 AM,24.8,21.2,86,29.67,10.0,South,3.5,-,N/A,,Overcast,170,2012-12-18 16:55:00
11:15 AM,26.6,21.2,80,29.66,10.0,ESE,5.8,-,N/A,,Overcast,110,2012-12-18 17:15:00
11:35 AM,26.6,21.2,80,29.66,10.0,Calm,Calm,-,N/A,,Overcast,0,2012-12-18 17:35:00
11:55 AM,26.6,21.2,80,29.66,10.0,SE,4.6,-,N/A,,Mostly Cloudy,130,2012-12-18 17:55:00
12:15 PM,26.6,21.2,80,29.64,10.0,ESE,4.6,-,N/A,,Overcast,120,2012-12-18 18:15:00
12:35 PM,26.6,21.2,80,29.63,10.0,East,4.6,-,N/A,,Overcast,80,2012-12-18 18:35:00
12:55 PM,28.4,21.2,74,29.63,10.0,East,3.5,-,N/A,,Scattered Clouds,80,2012-12-18 18:55:00
1:15 PM,28.4,21.2,74,29.63,10.0,East,4.6,-,N/A,,Clear,90,2012-12-18 19:15:00
1:35 PM,28.4,21.2,74,29.63,10.0,ESE,4.6,-,N/A,,Clear,120,2012-12-18 19:35:00
1:55 PM,28.4,21.2,74,29.64,10.0,SE,4.6,-,N/A,,Mostly Cloudy,130,2012-12-18 19:55:00
2:15 PM,28.4,21.2,74,29.64,10.0,Calm,Calm,-,N/A,,Mostly Cloudy,0,2012-12-18 20:15:00
2:35 PM,28.4,21.2,74,29.64,10.0,Calm,Calm,-,N/A,,Mostly Cloudy,0,2012-12-18 20:35:00
2:55 PM,30.2,23.0,75,29.65,10.0,Calm,Calm,-,N/A,,Overcast,0,2012-12-18 20:55:00
3:15 PM,30.2,23.0,75,29.65,10.0,Calm,Calm,-,N/A,,Overcast,0,2012-12-18 21:15:00
3:35 PM,30.2,23.0,75,29.65,10.0,Calm,Calm,-,N/A,,Overcast,0,2012-12-18 21:35:00
3:55 PM,30.2,23.0,75,29.65,10.0,Calm,Calm,-,N/A,,Overcast,0,2012-12-18 21:55:00
4:15 PM,28.4,21.2,74,29.66,10.0,Calm,Calm,-,N/A,,Overcast,0,2012-12-18 22:15:00
4:35 PM,28.4,21.2,74,29.66,10.0,Calm,Calm,-,N/A,,Overcast,0,2012-12-18 22:35:00
4:55 PM,28.4,21.2,74,29.67,10.0,Calm,Calm,-,N/A,,Overcast,0,2012-12-18 22:55:00
5:15 PM,28.4,23.0,80,29.68,10.0,Calm,Calm,-,N/A,,Overcast,0,2012-12-18 23:15:00
5:35 PM,26.6,21.2,80,29.68,10.0,Calm,Calm,-,N/A,,Overcast,0,2012-12-18 23:35:00
5:55 PM,28.4,23.0,80,29.69,10.0,Calm,Calm,-,N/A,,Overcast,0,2012-12-18 23:55:00
6:15 PM,26.6,23.0,86,29.69,10.0,Calm,Calm,-,N/A,,Overcast,0,2012-12-19 00:15:00
6:35 PM,26.6,23.0,86,29.69,10.0,Calm,Calm,-,N/A,,Mostly Cloudy,0,2012-12-19 00:35:00
6:55 PM,24.8,21.2,86,29.71,10.0,Calm,Calm,-,N/A,,Clear,0,2012-12-19 00:55:00
7:15 PM,23.0,21.2,93,29.71,10.0,Calm,Calm,-,N/A,,Scattered Clouds,0,2012-12-19 01:15:00
7:35 PM,23.0,19.4,86,29.72,10.0,Calm,Calm,-,N/A,,Clear,0,2012-12-19 01:35:00
7:55 PM,23.0,19.4,86,29.72,10.0,Calm,Calm,-,N/A,,Clear,0,2012-12-19 01:55:00
8:15 PM,23.0,19.4,86,29.72,10.0,Calm,Calm,-,N/A,,Clear,0,2012-12-19 02:15:00
8:35 PM,21.2,19.4,93,29.72,10.0,Calm,Calm,-,N/A,,Clear,0,2012-12-19 02:35:00
8:55 PM,19.4,17.6,93,29.72,10.0,Calm,Calm,-,N/A,,Clear,0,2012-12-19 02:55:00
9:15 PM,19.4,17.6,93,29.73,10.0,Calm,Calm,-,N/A,,Clear,0,2012-12-19 03:15:00
9:35 PM,19.4,17.6,93,29.73,10.0,Calm,Calm,-,N/A,,Clear,0,2012-12-19 03:35:00
9:55 PM,17.6,14.0,86,29.74,10.0,Calm,Calm,-,N/A,,Clear,0,2012-12-19 03:55:00
10:15 PM,19.4,15.8,86,29.74,10.0,Calm,Calm,-,N/A,,Clear,0,2012-12-19 04:15:00
10:35 PM,17.6,14.0,86,29.74,10.0,Calm,Calm,-,N/A,,Clear,0,2012-12-19 04:35:00
10:55 PM,17.6,14.0,86,29.75,10.0,Calm,Calm,-,N/A,,Clear,0,2012-12-19 04:55:00
11:15 PM,17.6,14.0,86,29.76,10.0,Calm,Calm,-,N/A,,Clear,0,2012-12-19 05:15:00
11:35 PM,17.6,14.0,86,29.76,10.0,Calm,Calm,-,N/A,,Clear,0,2012-12-19 05:35:00
11:55 PM,17.6,14.0,86,29.76,10.0,Calm,Calm,-,N/A,,Clear,0,2012-12-19 05:55:00